Terug naar catalogus

STARLINK-34559

ActiefCommunicatieVLEO
NORAD 64706·PAYLOAD·🇺🇸 United States

Gelanceerd Jun 28, 2025 vanaf Vandenberg Space Force Base

Loading…

Volgende Passages (komende 24 uur)

TLE

VersSource: CelesTrak SupGP

Epoch: Sep 14, 2026, 21:16 UTC

1 64706C 25142L   26257.88659722 -.00000261  00000+0 -90814-5 0  2570
2 64706  70.0015 195.8471 0003415 263.4788 332.2462 15.29590198    16

Volg STARLINK-34559 in realtime met AllMySat

Download on the App Store